Theta_e
287 288 290 291 290 288 286 285 285 281 280 280 281 285 288 288 288 288 285 292 293 295 295 295 295 296 296 297 297 297 297 296 296 296 296 296 297 297
286 285 286 289 289 290 289 285 284 289 285 283 282 283 287 288 287 286 283 288 291 293 294 294 294 295 295 295 296 296 296 295 294 294 294 294 295 295
284 284 285 285 287 289 285 286 287 283 287 285 281 282 285 286 285 284 283 284 285 291 292 293 293 293 294 294 294 294 294 294 293 292 293 293 293 294
284 284 284 286 284 286 286 286 287 285 287 286 280 281 283 286 284 283 282 282 282 288 291 292 292 292 293 293 293 293 292 292 292 291 291 292 292 292
285 285 285 285 284 285 285 285 287 286 284 283 281 279 281 284 280 282 280 280 280 284 289 290 291 292 292 293 292 291 291 291 290 290 290 290 290 291
284 285 285 284 285 285 285 285 286 286 285 283 279 278 279 280 282 280 278 279 279 280 285 287 289 290 291 292 291 290 290 290 289 289 290 290 289 290
283 284 284 285 286 287 285 285 286 285 285 285 283 277 277 278 280 280 280 280 280 280 279 280 283 285 286 291 289 290 289 289 289 289 289 289 289 289
280 282 283 284 285 288 289 290 288 285 285 285 284 282 281 282 282 280 280 277 276 279 278 278 281 281 282 284 289 289 289 289 288 289 288 288 288 288
278 280 281 283 283 284 286 289 289 290 291 286 285 284 283 283 282 281 281 280 281 279 280 278 278 278 281 282 288 289 288 288 288 288 288 288 287 286
276 278 279 280 282 283 283 283 284 286 287 288 288 287 287 284 283 284 282 282 280 279 281 277 278 278 280 281 287 288 288 288 288 288 288 288 287 286
274 275 276 277 281 284 283 282 282 283 287 289 290 291 291 291 285 283 281 279 277 277 279 279 278 279 279 279 282 288 288 288 288 288 288 287 286 285
270 272 275 276 279 282 280 281 280 281 283 284 285 288 289 289 289 283 283 279 280 276 280 278 277 276 275 278 279 282 284 287 287 288 286 286 285 280
269 270 273 276 278 280 282 282 282 284 284 283 283 284 285 286 286 285 283 282 281 280 278 280 277 276 276 274 277 279 280 281 283 285 286 285 284 281
267 269 271 275 277 279 280 283 286 286 284 282 282 282 282 284 285 285 284 284 284 284 279 282 278 278 274 272 273 277 278 280 280 278 278 281 282 283
268 269 272 273 275 276 280 282 283 283 283 283 281 281 282 284 284 283 283 283 282 283 280 281 279 279 278 274 273 274 275 276 277 276 276 276 277 277
268 267 269 271 273 275 274 280 281 282 283 283 282 282 282 282 282 281 279 278 278 275 278 281 278 278 277 275 274 274 275 273 275 276 276 276 277 277
269 267 267 269 269 270 271 279 280 281 281 283 282 281 280 280 279 280 279 277 276 274 272 274 276 276 275 274 272 274 273 273 275 274 274 273 275 276
271 267 267 267 267 268 270 273 276 278 280 282 281 281 279 278 278 277 278 275 275 272 272 272 271 271 270 271 274 272 272 272 273 273 273 271 271 274
270 267 266 267 268 269 271 273 276 278 281 281 281 279 278 277 277 276 275 274 274 271 271 271 271 270 266 265 269 275 271 271 272 271 271 271 269 272
269 268 267 267 268 269 271 273 277 278 279 280 280 279 278 277 276 274 274 272 273 270 270 270 270 270 270 269 267 271 275 271 271 270 270 270 271 273
267 269 269 268 269 270 272 274 275 276 277 279 277 278 277 275 274 274 273 273 272 270 268 267 270 272 270 270 268 268 272 275 273 270 270 268 267 267
264 266 271 273 271 271 272 276 276 276 276 277 277 276 275 275 273 272 271 271 270 270 269 270 270 269 269 268 266 266 267 270 273 274 273 271 267 264
263 265 267 273 275 276 276 276 276 275 275 274 274 273 273 272 272 272 271 271 269 268 267 267 268 269 267 267 266 266 266 266 267 266 267 270 270 271
Wind_Speed
7 8 9 8 6 7 4 5 6 7 8 6 5 10 9 8 12 12 10 17 20 21 20 19 17 16 14 12 10 8 7 4 3 3 3 4 4 4
5 7 8 7 8 7 8 5 5 12 12 7 10 6 12 9 12 12 11 17 21 21 20 19 18 16 15 14 13 12 10 7 5 2 2 3 3 3
6 7 8 7 9 9 5 7 9 6 14 7 4 5 10 11 10 10 11 11 10 22 21 20 18 17 17 16 15 14 11 9 7 6 4 3 2 1
8 7 9 7 9 10 8 11 11 7 11 17 6 5 8 15 13 13 10 9 10 18 21 21 20 19 19 18 17 15 14 12 10 8 7 5 3 2
9 10 11 9 10 9 10 11 10 8 8 7 7 2 4 7 5 7 10 9 7 16 21 22 22 21 20 19 18 17 15 14 14 13 11 8 6 4
10 10 11 11 12 11 11 13 11 11 8 9 5 4 4 4 8 10 7 7 10 8 15 15 18 21 21 22 21 18 17 16 15 14 13 11 9 7
14 13 13 14 19 17 10 11 12 11 11 12 12 4 5 5 16 9 11 9 9 8 9 8 8 9 11 21 14 17 18 18 18 17 14 13 11 9
17 17 14 15 18 25 26 27 20 13 15 13 14 15 17 11 11 11 10 7 8 9 10 11 10 10 9 10 20 22 22 20 19 18 16 15 13 10
19 18 17 13 15 15 22 27 27 31 30 18 19 20 14 13 12 14 17 15 11 7 16 12 10 12 10 10 23 23 24 23 22 19 18 16 14 11
19 20 20 20 19 17 16 17 18 19 21 17 22 21 17 10 15 17 16 12 3 3 14 10 9 11 9 9 25 26 25 24 22 20 19 18 16 14
20 21 21 23 28 30 21 20 19 19 20 29 31 30 28 23 19 10 11 11 8 4 12 6 7 7 9 8 11 27 26 24 22 21 20 18 16 14
20 22 29 30 36 35 23 20 20 21 16 16 18 25 27 21 25 20 15 15 13 7 10 11 6 7 4 4 9 11 13 25 23 22 20 19 16 4
15 15 15 31 34 36 36 21 24 20 19 16 15 14 15 16 13 16 18 16 16 13 8 13 7 8 2 5 6 10 10 11 12 16 22 20 16 10
18 15 17 32 35 37 32 35 34 29 15 12 13 13 13 14 15 15 19 16 14 16 12 19 6 11 8 5 6 9 9 9 10 10 8 13 16 16
16 23 36 36 39 32 34 38 30 16 15 15 15 14 13 12 12 11 12 16 14 10 12 20 8 13 12 5 8 11 15 10 10 10 8 8 7 7
26 20 22 28 31 29 22 24 17 14 13 14 12 12 10 11 11 9 9 9 9 3 4 12 8 11 10 3 6 11 8 9 12 9 8 6 6 6
18 14 13 12 12 12 14 14 14 14 13 11 11 10 11 10 10 9 10 8 10 9 5 4 6 4 5 3 5 10 10 6 10 11 8 7 6 6
14 12 13 13 12 12 13 14 8 11 11 11 11 11 11 11 11 9 10 11 11 9 9 7 8 6 3 3 2 6 6 6 8 9 7 5 5 5
11 12 12 12 12 11 12 12 9 10 12 10 10 10 11 11 13 10 11 10 9 10 10 10 11 10 8 7 3 8 6 6 8 7 6 4 3 5
12 12 11 10 11 11 11 12 9 7 9 9 9 10 11 11 10 12 12 13 12 9 9 8 10 10 10 8 5 4 12 8 7 6 6 4 2 6
12 12 11 12 12 11 11 10 9 7 8 8 8 9 10 10 11 12 11 15 14 10 10 11 10 12 7 5 4 4 7 12 7 7 6 5 3 1
12 14 12 10 9 10 11 10 8 8 8 8 7 8 9 10 11 11 11 11 11 10 8 7 11 10 7 4 7 7 5 4 6 9 7 5 3 2
13 13 13 8 5 6 8 6 6 5 5 5 5 6 8 8 8 9 9 10 10 10 11 10 8 7 5 8 10 6 7 7 4 3 2 4 7 11
Wind_Direction
247 242 244 249 244 235 209 185 200 239 229 224 209 207 201 182 190 188 181 196 205 211 211 207 204 203 204 202 200 201 202 195 178 149 134 118 107 85
259 246 252 256 249 247 241 225 223 242 258 193 216 197 197 192 189 183 189 189 204 212 215 210 207 208 207 204 199 195 192 187 180 172 152 133 114 92
280 261 258 246 257 258 239 238 240 209 250 246 215 199 191 193 189 191 184 190 200 211 214 213 210 210 209 207 203 199 195 190 184 177 181 175 155 91
278 270 266 263 257 260 253 249 246 227 238 247 193 199 192 199 191 189 191 198 191 204 213 216 210 211 214 212 207 202 194 189 188 186 191 189 174 160
275 273 272 262 261 260 253 253 244 240 232 231 222 180 207 188 162 197 194 191 193 196 212 218 216 212 214 216 212 208 201 195 187 184 188 183 178 187
266 260 261 254 258 254 251 251 250 244 233 238 218 188 180 185 191 190 193 202 205 197 208 208 212 215 212 214 214 209 202 199 196 193 187 181 181 183
270 263 259 252 249 246 252 253 250 244 239 238 241 199 197 171 196 179 203 192 216 201 199 208 197 203 216 215 211 208 211 204 194 192 189 186 184 184
282 276 264 254 256 253 250 247 240 244 242 237 242 232 225 214 195 187 183 169 211 194 194 214 196 201 210 214 201 200 205 205 202 191 189 187 186 182
280 278 273 263 253 249 250 247 242 241 240 242 243 239 232 213 188 195 199 194 207 159 187 213 191 213 195 208 204 205 203 199 196 193 190 188 184 181
281 280 275 269 261 253 250 245 238 233 234 234 241 249 240 204 207 206 201 209 29 146 182 196 176 210 191 193 202 203 200 196 196 195 193 189 184 186
280 275 271 271 270 263 255 251 247 239 234 232 234 243 248 242 201 190 200 190 210 198 196 153 181 174 185 184 193 199 197 197 198 194 194 193 188 191
281 277 273 270 270 265 259 252 250 244 227 231 235 236 237 238 224 206 191 203 216 202 201 180 154 149 177 192 185 195 192 194 199 195 192 194 193 164
284 283 279 277 273 269 264 251 245 250 241 228 229 230 227 224 219 215 216 206 205 224 189 180 168 167 134 145 172 188 180 185 189 187 194 190 188 183
286 287 290 286 276 273 267 259 253 248 241 227 227 224 221 220 218 214 214 222 231 231 171 198 177 182 159 151 165 177 194 185 169 173 178 186 187 185
273 273 281 281 276 287 283 263 255 247 238 231 225 227 219 221 216 210 209 217 224 228 185 194 204 194 193 157 157 174 161 188 179 173 175 185 174 161
269 272 268 270 266 274 287 264 243 238 237 228 226 220 216 212 207 192 189 186 202 182 223 193 195 195 199 145 156 160 165 168 174 175 170 177 165 169
259 253 256 267 275 281 282 264 228 228 234 236 211 204 205 199 198 185 186 178 194 177 160 132 114 65 11 161 145 166 159 139 171 154 162 159 169 189
273 264 269 261 261 268 271 278 244 239 237 229 212 200 198 193 192 186 179 186 189 172 167 162 139 125 63 336 354 151 148 142 151 150 155 148 160 175
271 257 256 257 257 255 264 274 243 241 234 220 211 200 194 193 189 182 182 177 181 171 172 165 174 171 172 184 143 193 139 140 144 153 152 135 134 157
278 263 252 245 249 240 251 265 246 231 220 222 209 194 191 189 183 183 182 178 176 172 172 177 179 185 192 187 150 162 160 152 160 141 146 143 187 244
307 296 249 238 235 235 243 247 240 223 217 217 194 193 187 179 184 181 179 181 174 169 173 182 178 158 119 113 95 115 148 153 118 140 152 148 160 194
312 307 269 252 229 228 241 239 230 229 221 213 194 182 178 179 179 172 173 171 173 171 165 150 148 147 145 134 137 131 121 112 137 160 170 163 152 203
326 331 341 342 282 233 221 228 228 211 198 185 164 167 162 162 163 165 167 164 155 148 140 147 151 153 131 133 129 127 122 124 124 148 208 245 272 272